Ely, NV

1:40 PM PDT on September 28, 2016 (GMT -0700)
Ely

Weather History for KELY - April, 2013

Change the Weather History Date:

Thursday, April 25, 2013

  Actual Average Record
Temperature  
Mean Temperature 42 °F 45 °F  
Max Temperature 65 °F 61 °F 77 °F (1987)
Min Temperature 19 °F 29 °F 10 °F (1960)
Degree Days  
Heating Degree Days 23 20  
Month to date heating degree days 587 580  
Since 1 July heating degree days 6567 6807  
Cooling Degree Days 0 0  
Month to date cooling degree days 0 0  
Year to date cooling degree days 0 0  
Moisture  
Dew Point 7 °F    
Average Humidity 37    
Maximum Humidity 67    
Minimum Humidity 7    
Precipitation  
Precipitation 0.00 in 0.03 in 0.55 in (1939)
Month to date precipitation 0.86 0.77  
Year to date precipitation 2.56 3.15  
Snow  
Snow 0.00 in 0.20 in 4.80 in (1971)
Month to date snowfall 6.5 4.5  
Since 1 July snowfall 65.0 47.7  
Snow Depth 0.00 in    
Sea Level Pressure  
Sea Level Pressure 30.01 in    
Wind  
Wind Speed 8 mph (North)    
Max Wind Speed 17 mph    
Max Gust Speed 25 mph    
Visibility 10 miles    
Events      
T = Trace of Precipitation, MM = Missing Value Source: NWS Daily Summary

Daily Weather History Graph

Daily Weather History Graph

Search for Another Location

Airport or City:

Trip Planner

Search our weather history database for the weather conditions in past years. The results will help you decide how hot, cold, wet, or windy it might be!

Date:

Astronomy

Apr. 25, 2013 Rise Set
Actual Time 5:48 AM PDT 7:27 PM PDT
Civil Twilight 5:19 AM PDT 7:55 PM PDT
Nautical Twilight 4:45 AM PDT 8:30 PM PDT
Astronomical Twilight 4:08 AM PDT 9:06 PM PDT
Moon 7:45 PM PDT (4/25) 5:33 AM PDT (4/25)
Length of Visible Light 14h 36m
Length of Day
13h 39m
Full, 100% of the Moon is Illuminated
Apr 25
Full
Apr 25
Full
May 2
Last Quarter
May 9
New
May 17
First Quarter

Hourly Weather History & Observations

Time (PDT) Temp. Windchill Dew Point Humidity Pressure Visibility Wind Dir Wind Speed Gust Speed Precip Events Conditions
12:53 AM 24.1 °F 15.2 °F 12.0 °F 60% 30.07 in 10.0 mi South 8.1 mph - N/A   Clear
1:53 AM 25.0 °F 14.8 °F 10.0 °F 53% 30.06 in 10.0 mi South 10.4 mph - N/A   Clear
3:53 AM 23.0 °F 12.4 °F 10.0 °F 58% 30.04 in 10.0 mi South 10.4 mph - N/A   Clear
4:53 AM 23.0 °F 13.9 °F 9.0 °F 55% 30.03 in 10.0 mi South 8.1 mph - N/A   Clear
5:53 AM 19.0 °F 10.0 °F 10.0 °F 68% 30.06 in 10.0 mi SSE 6.9 mph - N/A   Clear
6:53 AM 24.1 °F 16.0 °F 10.0 °F 55% 30.06 in 10.0 mi South 6.9 mph - N/A   Clear
7:53 AM 35.1 °F - 12.0 °F 39% 30.03 in 10.0 mi Calm Calm - N/A   Clear
8:53 AM 42.1 °F - 12.0 °F 29% 30.02 in 10.0 mi Calm Calm - N/A   Clear
9:53 AM 50.0 °F - 12.9 °F 23% 29.97 in 10.0 mi North 3.5 mph - N/A   Clear
10:53 AM 55.9 °F - 12.9 °F 18% 29.96 in 10.0 mi NNE 4.6 mph - N/A   Clear
11:53 AM 57.9 °F - 10.9 °F 16% 29.96 in 10.0 mi East 4.6 mph - N/A   Clear
12:53 PM 61.0 °F - 12.0 °F 15% 29.94 in 10.0 mi North 12.7 mph 18.4 mph N/A   Clear
1:53 PM 63.0 °F - 10.9 °F 13% 29.93 in 10.0 mi North 18.4 mph 23.0 mph N/A   Clear
2:53 PM 64.0 °F - 5.0 °F 10% 29.92 in 10.0 mi North 16.1 mph - N/A   Clear
3:53 PM 64.9 °F - 5.0 °F 9% 29.92 in 10.0 mi NNW 10.4 mph - N/A   Clear
4:53 PM 64.0 °F - 1.0 °F 8% 29.93 in 10.0 mi NNW 10.4 mph - N/A   Clear
5:53 PM 63.0 °F - -2.0 °F 7% 29.97 in 10.0 mi NW 12.7 mph 19.6 mph N/A   Clear
6:53 PM 57.0 °F - -0.0 °F 10% 29.98 in 10.0 mi NW 11.5 mph - N/A   Clear
7:53 PM 52.0 °F - 3.9 °F 14% 29.99 in 10.0 mi NW 5.8 mph - N/A   Clear
8:53 PM 44.1 °F 39.5 °F 1.0 °F 17% 30.04 in 10.0 mi WNW 8.1 mph - N/A   Clear
9:53 PM 37.0 °F 32.4 °F 3.9 °F 25% 30.05 in 10.0 mi ESE 5.8 mph - N/A   Clear
10:53 PM 34.0 °F 27.2 °F 3.9 °F 28% 30.06 in 10.0 mi SSE 8.1 mph - N/A   Clear
11:53 PM 32.0 °F 24.2 °F 8.6 °F 38% 30.17 in 10.0 mi South 9.2 mph - N/A   Clear